This demonstration page uses our WeatherBlox Daily Observations layout. Learn more.

Left ArrowRight Arrow

44.89941, -97.11507

Hourly Observations for September 19, 2018

Temp ( °F °C ) Dew Point ( °F °C ) Humidity (%) Winds ( mph kmh ) Pressure ( in mb ) Visibility ( mi km ) Precip ( " mm )
12:53 am 00:53 Cloudy 62 16.7 62 16.7 100 100 E 6 9 29.96 1015 10 16 0.00 0.03
1:16 am 01:16 Cloudy 61 16.1 61 16.1 100 100 ENE 8 13 29.94 1014 8 13 0.00 0.00
1:53 am 01:53 Cloudy with Mist and Fog 61 16.1 61 16.1 100 100 ENE 10 17 29.94 1014 3 5 0.00 0.00
2:13 am 02:13 Cloudy with Mist and Fog 61 16.1 61 16.1 100 100 E 7 11 29.91 1013 2 3 0.00 0.00
2:22 am 02:22 Cloudy with Mist and Fog 61 16.1 61 16.1 100 100 E 10 17 29.91 1013 2 3 0.00 0.00
2:31 am 02:31 Cloudy with Mist and Fog 60 15.6 60 15.6 100 100 ENE 10 17 29.91 1013 2 3 0.00 0.00
2:39 am 02:39 Cloudy with Mist and Fog 60 15.6 60 15.6 100 100 E 7 11 29.91 1013 2 3 0.00 0.00
2:53 am 02:53 Cloudy with Mist and Fog 60 15.6 60 15.6 100 100 ENE 7 11 29.93 1014 2 2 0.00 0.00
3:02 am 03:02 Cloudy with Mist and Fog 60 15.6 60 15.6 100 100 ENE 7 11 29.91 1013 1 2 0.00 0.00
3:53 am 03:53 Cloudy with Mist and Fog 60 15.6 60 15.6 100 100 ENE 10 17 29.93 1014 2 2 0.00 0.00
4:05 am 04:05 Cloudy with Mist and Fog 60 15.6 60 15.6 100 100 ENE 10 17 29.91 1013 3 4 0.00 0.00
4:49 am 04:49 Cloudy with Mist and Fog 59 15 59 15 100 100 E 10 17 29.91 1013 1 2 0.00 0.00
4:53 am 04:53 Cloudy with Mist and Fog 59 15 59 15 100 100 ENE 10 17 29.90 1012 1 2 0.00 0.00
5:21 am 05:21 Cloudy with Mist and Fog 59 15 59 15 100 100 E 10 17 29.91 1013 1 1 0.00 0.00
5:24 am 05:24 Cloudy with Nearby Thunderstorms 59 15 59 15 100 100 E 10 17 29.91 1013 1 2 0.00 0.00
5:30 am 05:30 Mostly Clear with Thunderstorms 59 15 59 15 100 100 E 7 11 29.97 1015 N/A 0.00 0.00
5:42 am 05:42 Mostly Clear with Thunderstorms 59 15 59 15 100 100 NNW 13 20 29.97 1015 3 4 0.00 0.00
5:48 am 05:48 Mostly Clear with Light Rain 59 15 59 15 100 100 N 7 11 29.97 1015 3 5 0.03 0.76
5:49 am 05:49 Mostly Clear with Light Rain 59 15 59 15 100 100 N 8 13 29.97 1015 3 5 0.04 1.02
5:56 am 05:56 Cloudy with Heavy Rain 58 14.4 58 14.4 100 100 N 9 15 29.97 1015 2 3 0.05 1.27
6:04 am 06:04 Cloudy with Light Rain 58 14.4 58 14.4 100 100 NNE 8 13 29.97 1015 3 4 0.07 1.78
6:07 am 06:07 Cloudy with Nearby Thunderstorms 58 14.4 58 14.4 100 100 NNE 8 13 29.97 1015 3 4 0.08 2.03
6:27 am 06:27 Cloudy with Rain 58 14.4 58 14.4 100 100 N 13 20 29.97 1015 3 5 0.18 4.57
6:39 am 06:39 Cloudy with Rain 58 14.4 58 14.4 100 100 N 14 22 29.97 1015 4 6 0.21 5.33
6:46 am 06:46 Cloudy with Light Rain 58 14.4 58 14.4 100 100 NNE 14 22 29.97 1015 5 8 0.22 5.59
6:53 am 06:53 Cloudy with Light Rain 57 13.9 57 13.9 100 100 NE 14 22 29.97 1015 6 10 0.22 5.59
7:05 am 07:05 Cloudy 58 14.4 58 14.4 100 100 NE 15 24 29.97 1015 10 16 0.01 0.25
7:53 am 07:53 Cloudy with Light Rain 58 14.4 58 14.4 100 100 E 12 19 29.95 1014 10 16 0.02 0.51
8:25 am 08:25 Mostly Cloudy 58 14.4 58 14.4 100 100 ESE 9 15 29.94 1014 10 16 0.01 0.25
8:44 am 08:44 Cloudy 58 14.4 58 14.4 100 100 E 10 17 29.94 1014 10 16 0.01 0.25
8:53 am 08:53 Cloudy 58 14.4 58 14.4 100 100 E 12 19 29.94 1014 10 16 0.01 0.25
9:53 am 09:53 Cloudy 60 15.6 59 15 96 96 NE 6 9 30.01 1016 10 16 0.00 0.00
10:42 am 10:42 Cloudy with Mist and Fog 59 15 59 15 100 100 ENE 10 17 29.97 1015 3 4 0.02 0.51
10:53 am 10:53 Cloudy with Mist and Fog 59 15 59 15 100 100 ENE 12 19 29.98 1015 2 3 0.02 0.51
11:03 am 11:03 Cloudy with Mist and Fog 58 14.4 58 14.4 100 100 E 8 13 29.97 1015 4 6 0.00 0.00
11:53 am 11:53 Cloudy 60 15.6 60 15.6 100 100 ESE 14 22 29.93 1014 10 16 0.00 0.03
12:11 pm 12:11 Cloudy 61 16.1 60 15.6 97 97 E 8 13 29.91 1013 10 16 0.00 0.00
12:53 pm 12:53 Cloudy with Nearby Thunderstorms 61 16.1 60 15.6 97 97 SSE 9 15 29.93 1014 7 11 0.01 0.25
1:23 pm 13:23 Cloudy with Rain 61 16.1 60 15.6 97 97 N 7 11 30.00 1016 6 10 0.03 0.76
1:53 pm 13:53 Cloudy with Light Rain 59 15 59 15 100 100 NE 13 20 29.96 1015 3 5 0.06 1.52
2:53 pm 14:53 Cloudy with Mist and Fog 58 14.4 58 14.4 100 100 NE 18 30 29.95 1014 4 6 0.01 0.25
3:53 pm 15:53 Cloudy 56 13.3 56 13.3 100 100 NE 12 19 29.97 1015 10 16 0.00 0.00
4:53 pm 16:53 Cloudy 56 13.3 56 13.3 100 100 NE 13 20 29.99 1016 10 16 0.00 0.00
5:31 pm 17:31 Cloudy 55 12.8 55 12.8 100 100 NNE 14 22 29.97 1015 8 13 0.00 0.00
5:45 pm 17:45 Cloudy with Mist and Fog 56 13.3 55 12.8 97 97 NNE 16 26 29.97 1015 4 6 0.00 0.00
5:53 pm 17:53 Cloudy with Mist and Fog 55 12.8 55 12.8 100 100 NE 16 26 29.99 1016 4 6 0.00 0.00
6:53 pm 18:53 Cloudy 54 12.2 54 12.2 100 100 NE 15 24 29.99 1016 8 13 0.00 0.00
7:53 pm 19:53 Cloudy 55 12.8 55 12.8 100 100 NNE 16 26 29.98 1015 10 16 0.00 0.00
8:53 pm 20:53 Cloudy 54 12.2 54 12.2 100 100 NE 16 26 30.00 1016 10 16 0.00 0.00
9:53 pm 21:53 Cloudy 55 12.8 54 12.2 96 96 NE 12 19 30.01 1016 10 16 0.00 0.00
10:53 pm 22:53 Cloudy 54 12.2 53 11.7 97 97 NE 16 26 29.98 1015 10 16 0.00 0.00
11:53 pm 23:53 Cloudy 54 12.2 53 11.7 97 97 ENE 15 24 29.99 1016 10 16 0.00 0.00

Powered by AerisWeather